Orbital Elements at Epoch 2459000.5 (2020-May-31.0) TDB
Reference: JPL 15 (heliocentric ecliptic J2000)
Element | Value | Uncertainty (1-sigma) | Units |
e | .02362552083450429 | 5.8167e-08 | |
a | 2.772368823291564 | 2.0083e-08 | au |
q | 2.706870165895959 | 1.5928e-07 | au |
i | 2.989924754684083 | 6.1933e-06 | deg |
node | 29.61298303184099 | 8.0423e-05 | deg |
peri | 172.0185603542232 | 0.00011978 | deg |
M | 248.6760416814824 | 8.947e-05 | deg |
tp | 2459521.888053065457 (2021-Nov-03.38805307) | 0.00042001 | TDB |
period | 1686.067419256889 4.62 | 1.8321e-05 5.016e-08 | d yr |
n | .2135145937157513 | 2.3201e-09 | deg/d |
Q | 2.837867480687169 | 2.0558e-08 | au |
|
| | Orbit Determination Parameters
Additional Information
|